Weather History for Warrenton, VA

Change the Weather History Date:

Saturday, May 25, 2013

  Actual Average (KHEF) Record (KHEF)
Temperature  
Mean Temperature 56 °F -  
Max Temperature 68 °F 72 °F 87 °F (2007)
Min Temperature 44 °F 51 °F 44 °F (2008)
Degree Days  
Heating Degree Days 9    
Growing Degree Days 6 (Base 50)    
Moisture  
Dew Point 41 °F    
Average Humidity 60    
Maximum Humidity 87    
Minimum Humidity 41    
Precipitation  
Precipitation 0.00 in - - ()
Sea Level Pressure  
Sea Level Pressure 30.17 in    
Wind  
Wind Speed 11 mph (WNW)    
Max Wind Speed 22 mph    
Max Gust Speed 28 mph    
Visibility 10 miles    
Events      
Averages and records for this station are not official NWS values.
T = Trace of Precipitation, MM = Missing Value Source: NWS Daily Summary

Daily Weather History Graph

Daily Weather History Graph

Search for Another Location

Airport:

Trip Planner

Search our weather history database for the weather conditions in past years. The results will help you decide how hot, cold, wet, or windy it might be!

Date:

Astronomy

May. 25, 2013 Rise Set
Actual Time 5:51 AM EDT 8:24 PM EDT
Civil Twilight 5:20 AM EDT 8:55 PM EDT
Nautical Twilight 4:42 AM EDT 9:33 PM EDT
Astronomical Twilight 4:00 AM EDT 10:16 PM EDT
Moon 9:10 PM EDT (5/25) 6:16 AM EDT (5/25)
Length of Visible Light 15h 34m
Length of Day
14h 32m
Full, 100% of the Moon is Illuminated
May 25
Full
May 31
Last Quarter
Jun 8
New
Jun 16
First Quarter
Jun 23
Full

Hourly Weather History & Observations

Time (EDT) Temp. Windchill Dew Point Humidity Pressure Visibility Wind Dir Wind Speed Gust Speed Precip Events Conditions
12:15 AM 48.4 °F - 37.9 °F 67% 30.19 in 10.0 mi NNW 11.5 mph 17.3 mph N/A   Clear
12:35 AM 48.0 °F - 37.6 °F 67% 30.19 in 10.0 mi NNW 13.8 mph 20.7 mph N/A   Clear
12:55 AM 47.8 °F - 37.6 °F 68% 30.19 in 10.0 mi NNW 9.2 mph - N/A   Clear
1:15 AM 47.7 °F - 37.4 °F 68% 30.20 in 10.0 mi NW 9.2 mph 20.7 mph N/A   Clear
1:35 AM 46.9 °F - 37.0 °F 68% 30.19 in 10.0 mi NW 9.2 mph - N/A   Clear
1:55 AM 46.4 °F 41.9 °F 37.2 °F 70% 30.18 in 10.0 mi WNW 9.2 mph - N/A   Clear
2:15 AM 46.6 °F - 37.0 °F 69% 30.18 in 10.0 mi WNW 12.7 mph 18.4 mph N/A   Clear
2:35 AM 45.9 °F 41.2 °F 37.2 °F 72% 30.18 in 10.0 mi WNW 9.2 mph - N/A   Clear
2:55 AM 45.3 °F 40.1 °F 36.9 °F 72% 30.18 in 10.0 mi WNW 10.4 mph - N/A   Clear
3:15 AM 45.7 °F 41.0 °F 36.5 °F 70% 30.18 in 10.0 mi WNW 9.2 mph 16.1 mph N/A   Clear
3:35 AM 45.3 °F 40.6 °F 36.5 °F 71% 30.18 in 10.0 mi NW 9.2 mph - N/A   Clear
3:55 AM 45.9 °F 40.0 °F 36.5 °F 70% 30.19 in 10.0 mi WNW 12.7 mph 16.1 mph N/A   Clear
4:15 AM 45.3 °F 40.6 °F 36.5 °F 71% 30.19 in 10.0 mi WNW 9.2 mph 16.1 mph N/A   Clear
4:35 AM 45.0 °F 40.1 °F 36.5 °F 72% 30.19 in 10.0 mi WNW 9.2 mph - N/A   Clear
4:55 AM 45.3 °F 41.6 °F 36.5 °F 71% 30.19 in 10.0 mi WNW 6.9 mph 18.4 mph N/A   Clear
5:15 AM 44.6 °F 40.7 °F 36.7 °F 74% 30.20 in 10.0 mi WNW 6.9 mph - N/A   Clear
5:35 AM 44.6 °F 42.2 °F 36.5 °F 73% 30.20 in 10.0 mi WNW 4.6 mph - N/A   Clear
5:55 AM 44.8 °F 41.0 °F 36.5 °F 73% 30.20 in 10.0 mi WNW 6.9 mph - N/A   Clear
6:15 AM 45.5 °F 41.3 °F 36.7 °F 71% 30.20 in 10.0 mi WNW 8.1 mph 16.1 mph N/A   Clear
6:35 AM 46.0 °F 40.2 °F 37.2 °F 71% 30.21 in 10.0 mi WNW 12.7 mph - N/A   Clear
6:55 AM 47.1 °F - 37.6 °F 69% 30.21 in 10.0 mi WNW 9.2 mph - N/A   Clear
7:15 AM 48.2 °F - 37.9 °F 68% 30.22 in 10.0 mi West 3.5 mph - N/A   Clear
7:35 AM 49.3 °F - 38.8 °F 67% 30.23 in 10.0 mi WNW 8.1 mph - N/A   Clear
7:55 AM 50.4 °F - 39.0 °F 65% 30.23 in 10.0 mi West 12.7 mph 17.3 mph N/A   Clear
8:15 AM 51.8 °F - 40.5 °F 65% 30.23 in 10.0 mi West 6.9 mph - N/A   Clear
8:35 AM 53.1 °F - 40.5 °F 62% 30.23 in 10.0 mi WNW 8.1 mph - N/A   Clear
8:55 AM 53.6 °F - 40.5 °F 61% 30.23 in 10.0 mi NW 8.1 mph 19.6 mph N/A   Clear
9:15 AM 54.5 °F - 41.2 °F 61% 30.22 in 10.0 mi NW 12.7 mph 17.3 mph N/A   Clear
9:35 AM 54.7 °F - 41.4 °F 61% 30.21 in 10.0 mi WNW 18.4 mph 23.0 mph N/A   Clear
9:55 AM 54.9 °F - 41.4 °F 60% 30.21 in 10.0 mi NW 13.8 mph 19.6 mph N/A   Clear
10:15 AM 55.6 °F - 42.4 °F 61% 30.20 in 10.0 mi WNW 15.0 mph 23.0 mph N/A   Clear
10:35 AM 56.1 °F - 42.6 °F 61% 30.20 in 10.0 mi NW 10.4 mph 17.3 mph N/A   Clear
10:55 AM 56.8 °F - 42.4 °F 59% 30.20 in 10.0 mi NW 13.8 mph 21.9 mph N/A   Clear
11:15 AM 57.4 °F - 41.9 °F 56% 30.19 in 10.0 mi WNW 16.1 mph 27.6 mph N/A   Clear
11:35 AM 58.5 °F - 43.5 °F 58% 30.19 in 10.0 mi NW 10.4 mph 20.7 mph N/A   Clear
11:55 AM 59.5 °F - 44.1 °F 57% 30.20 in 10.0 mi WNW 12.7 mph 19.6 mph N/A   Clear
12:15 PM 60.8 °F - 44.8 °F 56% 30.19 in 10.0 mi NNW 9.2 mph 17.3 mph N/A   Clear
12:35 PM 61.3 °F - 45.1 °F 55% 30.18 in 10.0 mi West 10.4 mph 20.7 mph N/A   Clear
12:55 PM 62.8 °F - 45.0 °F 52% 30.17 in 10.0 mi NW 15.0 mph 23.0 mph N/A   Clear
1:15 PM 63.7 °F - 44.4 °F 50% 30.16 in 10.0 mi NW 16.1 mph 25.3 mph N/A   Clear
1:35 PM 64.9 °F - 45.3 °F 49% 30.16 in 10.0 mi WNW 13.8 mph 21.9 mph N/A   Clear
1:55 PM 65.8 °F - 44.2 °F 46% 30.15 in 10.0 mi NNW 12.7 mph 21.9 mph N/A   Clear
2:15 PM 66.0 °F - 43.7 °F 44% 30.15 in 10.0 mi NW 11.5 mph 25.3 mph N/A   Clear
2:35 PM 66.9 °F - 45.9 °F 47% 30.14 in 10.0 mi WNW 12.7 mph 20.7 mph N/A   Clear
2:55 PM 66.9 °F - 44.2 °F 44% 30.14 in 10.0 mi NW 18.4 mph 23.0 mph N/A   Clear
3:15 PM 67.3 °F - 45.5 °F 45% 30.13 in 10.0 mi WNW 16.1 mph 25.3 mph N/A   Clear
3:35 PM 67.1 °F - 43.3 °F 42% 30.13 in 10.0 mi NW 21.9 mph 27.6 mph N/A   Clear
3:55 PM 68.4 °F - 46.2 °F 45% 30.13 in 10.0 mi NW 17.3 mph 24.2 mph N/A   Clear
4:15 PM 67.8 °F - 45.0 °F 44% 30.12 in 10.0 mi NW 13.8 mph 21.9 mph N/A   Clear
4:35 PM 67.3 °F - 43.0 °F 41% 30.12 in 10.0 mi NW 15.0 mph 25.3 mph N/A   Clear
4:55 PM 67.3 °F - 43.7 °F 42% 30.12 in 10.0 mi WNW 18.4 mph 24.2 mph N/A   Clear
5:15 PM 67.6 °F - 45.3 °F 45% 30.12 in 10.0 mi WNW 12.7 mph 23.0 mph N/A   Clear
5:35 PM 67.3 °F - 44.2 °F 43% 30.12 in 10.0 mi WNW 15.0 mph 24.2 mph N/A   Clear
5:55 PM 66.9 °F - 43.9 °F 43% 30.12 in 10.0 mi NW 16.1 mph 23.0 mph N/A   Clear
6:15 PM 66.6 °F - 43.5 °F 43% 30.12 in 10.0 mi NW 17.3 mph 26.5 mph N/A   Clear
6:35 PM 66.2 °F - 42.6 °F 42% 30.12 in 10.0 mi NW 18.4 mph 25.3 mph N/A   Clear
6:55 PM 65.5 °F - 43.2 °F 44% 30.12 in 10.0 mi NW 12.7 mph 23.0 mph N/A   Clear
7:15 PM 64.9 °F - 43.0 °F 45% 30.13 in 10.0 mi NW 15.0 mph 20.7 mph N/A   Clear
7:35 PM 64.0 °F - 43.7 °F 48% 30.13 in 10.0 mi WNW 11.5 mph 19.6 mph N/A   Clear
7:55 PM 62.8 °F - 43.5 °F 49% 30.14 in 10.0 mi WNW 12.7 mph 20.7 mph N/A   Clear
8:15 PM 61.3 °F - 43.0 °F 51% 30.14 in 10.0 mi WNW 13.8 mph 18.4 mph N/A   Clear
8:35 PM 61.2 °F - 42.6 °F 51% 30.14 in 10.0 mi WNW 12.7 mph - N/A   Clear
8:55 PM 59.7 °F - 43.0 °F 54% 30.14 in 10.0 mi WNW 9.2 mph - N/A   Clear
9:15 PM 57.0 °F - 43.9 °F 61% 30.14 in 10.0 mi WNW 9.2 mph - N/A   Clear
9:35 PM 57.0 °F - 43.3 °F 60% 30.15 in 10.0 mi Calm Calm - N/A   Clear
9:55 PM 51.6 °F - 45.0 °F 78% 30.16 in 10.0 mi South 4.6 mph - N/A   Clear
10:15 PM 54.5 °F - 44.2 °F 68% 30.16 in 10.0 mi SW 4.6 mph - N/A   Clear
10:35 PM 55.0 °F - 43.5 °F 65% 30.16 in 10.0 mi WNW 8.1 mph - N/A   Clear
10:55 PM 55.2 °F - 44.4 °F 67% 30.16 in 10.0 mi WNW 8.1 mph - N/A   Clear
11:15 PM 54.3 °F - 43.7 °F 67% 30.16 in 10.0 mi Calm Calm - N/A   Clear
11:35 PM 50.5 °F - 45.3 °F 82% 30.17 in 10.0 mi SSW 3.5 mph - N/A   Clear
11:55 PM 48.0 °F - 44.4 °F 87% 30.18 in 10.0 mi South 3.5 mph - N/A   Clear